UTN7422 HEGN-EPPO

Flight info

Callsign UTN7422
Flight time 4h 31m
Altitude 34000
Route HGD V608 NABED T55 GINDI W8 ALPID DCT GESON Q777 RASDA M855 TOMBI/N0455F360 UA16 AYT UQ23 OSVEL UL619 MAKOL DCT KARIL DCT KENIN DCT LENOV L623 MAVOT Z159 NILPU
Aircraft B738/M-SDE2E3FGHIRWXY/LB1

Departure

Time 2026-04-24 14:23
Airport Hurghada International Airport (HEGN)

Arrival

Time 2026-04-24 18:54
Airport Poznań-Ławica Airport (EPPO)
Time Latitude Longitude Altitude Speed Heading
2026-04-24 13:55 27.18781 33.80431 57 ft 0 kts 75°
2026-04-24 14:08 27.18777 33.80416 49 ft 4 kts 79°
2026-04-24 14:09 27.18774 33.80386 50 ft 4 kts 94°
2026-04-24 14:09 27.18780 33.80358 52 ft 4 kts 132°
2026-04-24 14:09 27.18791 33.80349 49 ft 1 kts 165°
2026-04-24 14:12 27.18785 33.80351 49 ft 2 kts 165°
2026-04-24 14:12 27.18772 33.80354 51 ft 2 kts 165°
2026-04-24 14:13 27.18757 33.80359 55 ft 4 kts 165°
2026-04-24 14:13 27.18718 33.80370 53 ft 6 kts 165°
2026-04-24 14:13 27.18676 33.80383 56 ft 6 kts 165°
2026-04-24 14:13 27.18627 33.80372 54 ft 9 kts 239°
2026-04-24 14:14 27.18609 33.80307 53 ft 9 kts 255°
2026-04-24 14:14 27.18592 33.80234 52 ft 10 kts 255°
2026-04-24 14:14 27.18521 33.80079 49 ft 17 kts 189°
2026-04-24 14:15 27.18401 33.80111 48 ft 18 kts 165°
2026-04-24 14:15 27.18283 33.80145 51 ft 17 kts 165°
2026-04-24 14:15 27.18172 33.80179 52 ft 16 kts 164°
2026-04-24 14:15 27.18063 33.80211 49 ft 16 kts 166°
2026-04-24 14:16 27.17936 33.80248 51 ft 20 kts 165°
2026-04-24 14:16 27.17800 33.80288 53 ft 20 kts 166°
2026-04-24 14:16 27.17667 33.80327 51 ft 19 kts 165°
2026-04-24 14:17 27.17429 33.80344 48 ft 17 kts 250°
2026-04-24 14:17 27.17398 33.80217 48 ft 17 kts 255°
2026-04-24 14:17 27.17339 33.79964 53 ft 20 kts 255°
2026-04-24 14:18 27.17302 33.79810 69 ft 20 kts 255°
2026-04-24 14:18 27.17265 33.79659 90 ft 20 kts 255°
2026-04-24 14:18 27.17227 33.79521 101 ft 16 kts 233°
2026-04-24 14:18 27.17123 33.79523 103 ft 17 kts 165°
2026-04-24 14:19 27.16997 33.79558 106 ft 19 kts 166°
2026-04-24 14:19 27.16855 33.79600 105 ft 23 kts 165°
2026-04-24 14:19 27.16699 33.79647 106 ft 23 kts 165°
2026-04-24 14:19 27.16548 33.79692 107 ft 22 kts 165°
2026-04-24 14:20 27.16401 33.79736 110 ft 23 kts 165°
2026-04-24 14:20 27.16235 33.79784 114 ft 27 kts 165°
2026-04-24 14:20 27.16035 33.79845 115 ft 30 kts 165°
2026-04-24 14:20 27.15938 33.79836 117 ft 14 kts 246°
2026-04-24 14:21 27.15930 33.79807 120 ft 0 kts 255°
2026-04-24 14:21 27.15928 33.79800 118 ft 3 kts 254°
2026-04-24 14:21 27.15914 33.79742 119 ft 13 kts 254°
2026-04-24 14:22 27.15954 33.79672 115 ft 10 kts 345°
2026-04-24 14:22 27.15971 33.79667 117 ft 9 kts 345°
2026-04-24 14:22 27.16964 33.79372 108 ft 134 kts 345°
2026-04-24 14:23 27.18030 33.79057 165 ft 177 kts 345°
2026-04-24 14:23 27.19228 33.78696 745 ft 179 kts 346°
2026-04-24 14:23 27.20448 33.78342 1423 ft 177 kts 345°
2026-04-24 14:23 27.21655 33.77984 2036 ft 185 kts 345°
2026-04-24 14:24 27.22996 33.77603 2286 ft 211 kts 345°
2026-04-24 14:24 27.24493 33.77187 2473 ft 230 kts 345°
2026-04-24 14:24 27.26045 33.76770 2942 ft 236 kts 345°
2026-04-24 14:24 27.27702 33.76329 3202 ft 256 kts 345°
2026-04-24 14:25 27.29485 33.75857 3818 ft 264 kts 345°
2026-04-24 14:25 27.31295 33.75405 4519 ft 269 kts 345°
2026-04-24 14:25 27.33141 33.74964 5166 ft 273 kts 345°
2026-04-24 14:25 27.35015 33.74525 5838 ft 276 kts 345°
2026-04-24 14:26 27.36867 33.74096 6669 ft 270 kts 343°
2026-04-24 14:26 27.38532 33.73186 7255 ft 267 kts 315°
2026-04-24 14:26 27.39607 33.71518 7844 ft 265 kts 288°
2026-04-24 14:26 27.39872 33.69517 8427 ft 265 kts 263°
2026-04-24 14:27 27.39349 33.67528 9060 ft 266 kts 243°
2026-04-24 14:27 27.38456 33.65694 9692 ft 272 kts 240°
2026-04-24 14:27 27.37490 33.63833 10189 ft 278 kts 239°
2026-04-24 14:27 27.36480 33.61905 10430 ft 296 kts 239°
2026-04-24 14:28 27.35409 33.59850 10658 ft 313 kts 239°
2026-04-24 14:28 27.34276 33.57660 10806 ft 333 kts 239°
2026-04-24 14:28 27.33082 33.55340 10985 ft 349 kts 239°
2026-04-24 14:28 27.31846 33.52928 11256 ft 362 kts 239°
2026-04-24 14:29 27.30577 33.50449 11707 ft 367 kts 240°
2026-04-24 14:29 27.29302 33.47953 12261 ft 370 kts 240°
2026-04-24 14:29 27.28029 33.45462 12806 ft 372 kts 240°
2026-04-24 14:29 27.26733 33.42927 13358 ft 375 kts 240°
2026-04-24 14:30 27.25850 33.41200 13690 ft 378 kts 240°
2026-04-24 14:30 27.24102 33.37789 14336 ft 380 kts 240°
2026-04-24 14:30 27.22883 33.35144 14826 ft 382 kts 248°
2026-04-24 14:30 27.22175 33.32291 15307 ft 385 kts 259°
2026-04-24 14:31 27.21946 33.29282 15791 ft 389 kts 270°
2026-04-24 14:31 27.22143 33.26230 16224 ft 392 kts 274°
2026-04-24 14:31 27.22413 33.23168 16701 ft 395 kts 274°
2026-04-24 14:31 27.22699 33.20090 17183 ft 397 kts 274°
2026-04-24 14:32 27.22984 33.16998 17679 ft 399 kts 274°
2026-04-24 14:32 27.23259 33.13888 18120 ft 402 kts 274°
2026-04-24 14:32 27.23527 33.10762 18524 ft 403 kts 273°
2026-04-24 14:32 27.23790 33.07618 18974 ft 404 kts 273°
2026-04-24 14:33 27.24048 33.04475 19408 ft 405 kts 273°
2026-04-24 14:33 27.24306 33.01309 19772 ft 408 kts 272°
2026-04-24 14:33 27.24563 32.98124 20225 ft 408 kts 272°
2026-04-24 14:33 27.24818 32.94946 20701 ft 408 kts 272°
2026-04-24 14:34 27.25073 32.91770 21133 ft 409 kts 272°
2026-04-24 14:34 27.25328 32.88576 21531 ft 411 kts 272°
2026-04-24 14:34 27.25583 32.85369 21933 ft 412 kts 272°
2026-04-24 14:34 27.25839 32.82150 22332 ft 413 kts 272°
2026-04-24 14:35 27.26095 32.78930 22716 ft 414 kts 272°
2026-04-24 14:35 27.26348 32.75735 23093 ft 416 kts 272°
2026-04-24 14:35 27.26603 32.72497 23431 ft 417 kts 272°
2026-04-24 14:35 27.26860 32.69234 23710 ft 419 kts 272°
2026-04-24 14:36 27.27116 32.65965 23966 ft 421 kts 272°
2026-04-24 14:36 27.27373 32.62675 24237 ft 423 kts 272°
2026-04-24 14:36 27.27631 32.59370 24501 ft 425 kts 272°
2026-04-24 14:36 27.27889 32.56046 24760 ft 427 kts 272°
2026-04-24 14:37 27.28148 32.52711 25019 ft 429 kts 272°
2026-04-24 14:37 27.28407 32.49361 25268 ft 431 kts 272°
2026-04-24 14:37 27.28666 32.45994 25519 ft 433 kts 272°
2026-04-24 14:37 27.28925 32.42617 25767 ft 435 kts 272°
2026-04-24 14:38 27.29185 32.39226 26006 ft 437 kts 272°
2026-04-24 14:38 27.29446 32.35809 26244 ft 438 kts 272°
2026-04-24 14:38 27.29802 32.32395 26466 ft 442 kts 279°
2026-04-24 14:38 27.30673 32.29052 26689 ft 448 kts 288°
2026-04-24 14:39 27.31947 32.25894 26927 ft 452 kts 295°
2026-04-24 14:39 27.33672 32.22911 27138 ft 458 kts 303°
2026-04-24 14:39 27.35621 32.20069 27390 ft 459 kts 304°
2026-04-24 14:39 27.37602 32.17242 27706 ft 459 kts 305°
2026-04-24 14:40 27.39578 32.14430 28070 ft 457 kts 304°
2026-04-24 14:40 27.41539 32.11621 28443 ft 456 kts 304°
2026-04-24 14:40 27.43486 32.08811 28751 ft 455 kts 304°
2026-04-24 14:40 27.45425 32.05992 29050 ft 455 kts 304°
2026-04-24 14:41 27.47360 32.03167 29373 ft 455 kts 304°
2026-04-24 14:41 27.49285 32.00347 29712 ft 454 kts 304°
2026-04-24 14:41 27.51209 31.97526 30001 ft 453 kts 304°
2026-04-24 14:41 27.53130 31.94706 30279 ft 452 kts 304°
2026-04-24 14:42 27.54398 31.92846 30467 ft 451 kts 304°
2026-04-24 14:42 27.56954 31.89092 30881 ft 449 kts 304°
2026-04-24 14:42 27.58829 31.86337 31184 ft 447 kts 304°
2026-04-24 14:42 27.60723 31.83553 31451 ft 447 kts 304°
2026-04-24 14:43 27.62614 31.80771 31717 ft 445 kts 304°
2026-04-24 14:43 27.64494 31.78003 31998 ft 444 kts 304°
2026-04-24 14:43 27.66365 31.75248 32280 ft 442 kts 304°
2026-04-24 14:43 27.68243 31.72480 32537 ft 442 kts 304°
2026-04-24 14:44 27.70112 31.69723 32793 ft 441 kts 304°
2026-04-24 14:44 27.71970 31.66981 33038 ft 440 kts 304°
2026-04-24 14:44 27.73828 31.64237 33262 ft 439 kts 304°
2026-04-24 14:44 27.75654 31.61538 33488 ft 438 kts 304°
2026-04-24 14:45 27.77507 31.58799 33722 ft 437 kts 304°
2026-04-24 14:45 27.79356 31.56063 33864 ft 437 kts 304°
2026-04-24 14:45 27.81203 31.53327 33858 ft 439 kts 304°
2026-04-24 14:46 27.84898 31.47853 33866 ft 436 kts 304°
2026-04-24 14:46 27.88547 31.42440 33871 ft 434 kts 304°
2026-04-24 14:47 27.91583 31.37930 33867 ft 432 kts 304°
2026-04-24 14:47 27.95831 31.31609 33874 ft 431 kts 304°
2026-04-24 14:48 27.99463 31.26200 33867 ft 431 kts 304°
2026-04-24 14:48 28.02478 31.21705 33871 ft 431 kts 304°
2026-04-24 14:49 28.07547 31.16520 33878 ft 443 kts 333°
2026-04-24 14:49 28.10509 31.15467 33861 ft 450 kts 347°
2026-04-24 14:49 28.13662 31.15342 33878 ft 457 kts
2026-04-24 14:50 28.18960 31.15933 33862 ft 461 kts
2026-04-24 14:50 28.25355 31.16763 33864 ft 463 kts
2026-04-24 14:51 28.31785 31.17533 33861 ft 465 kts
2026-04-24 14:51 28.38237 31.18257 33850 ft 466 kts
2026-04-24 14:52 28.44768 31.18980 33855 ft 467 kts
2026-04-24 14:52 28.51218 31.19698 33849 ft 468 kts
2026-04-24 14:53 28.57716 31.20424 33853 ft 468 kts
2026-04-24 14:53 28.64173 31.21147 33844 ft 469 kts
2026-04-24 14:54 28.70661 31.21874 33843 ft 469 kts
2026-04-24 14:54 28.77154 31.22648 33840 ft 469 kts
2026-04-24 14:55 28.83655 31.23444 33839 ft 470 kts
2026-04-24 14:55 28.90173 31.24239 33839 ft 471 kts
2026-04-24 14:56 28.96740 31.25037 33835 ft 472 kts
2026-04-24 14:56 29.03298 31.25833 33829 ft 474 kts
2026-04-24 14:57 29.09907 31.26637 33831 ft 476 kts
2026-04-24 14:57 29.16499 31.27440 33834 ft 477 kts
2026-04-24 14:58 29.23112 31.28247 33839 ft 479 kts
2026-04-24 14:58 29.29754 31.29058 33839 ft 480 kts
2026-04-24 14:59 29.36471 31.29961 33835 ft 482 kts
2026-04-24 14:59 29.43148 31.31000 33835 ft 483 kts
2026-04-24 15:00 29.49795 31.32026 33834 ft 483 kts
2026-04-24 15:00 29.56460 31.33033 33843 ft 482 kts
2026-04-24 15:01 29.63119 31.34025 33839 ft 481 kts
2026-04-24 15:01 29.69718 31.33854 33854 ft 472 kts 350°
2026-04-24 15:02 29.76262 31.33061 33843 ft 472 kts 349°
2026-04-24 15:02 29.79527 31.32657 33962 ft 473 kts 349°
2026-04-24 15:02 29.82792 31.32267 34194 ft 471 kts 349°
2026-04-24 15:02 29.86063 31.31889 34451 ft 469 kts 349°
2026-04-24 15:03 29.88246 31.31643 34609 ft 467 kts 349°
2026-04-24 15:03 29.92579 31.31162 34851 ft 467 kts 349°
2026-04-24 15:03 29.95807 31.30806 35015 ft 467 kts 349°
2026-04-24 15:03 29.99037 31.30451 35175 ft 466 kts 349°
2026-04-24 15:04 30.02264 31.30096 35377 ft 465 kts 349°
2026-04-24 15:04 30.05482 31.29742 35527 ft 464 kts 349°
2026-04-24 15:04 30.08710 31.29386 35670 ft 464 kts 349°
2026-04-24 15:04 30.11913 31.29033 35810 ft 463 kts 349°
2026-04-24 15:05 30.15114 31.28678 35816 ft 463 kts 349°
2026-04-24 15:05 30.21572 31.27963 35835 ft 461 kts 349°
2026-04-24 15:06 30.27995 31.27251 35834 ft 460 kts 349°
2026-04-24 15:06 30.34402 31.26540 35833 ft 459 kts 349°
2026-04-24 15:07 30.40743 31.25834 35837 ft 458 kts 349°
2026-04-24 15:07 30.47049 31.25132 35841 ft 457 kts 349°
2026-04-24 15:08 30.53392 31.24425 35843 ft 457 kts 349°
2026-04-24 15:08 30.59750 31.23715 35845 ft 458 kts 349°
2026-04-24 15:09 30.66093 31.23005 35846 ft 459 kts 349°
2026-04-24 15:09 30.72476 31.22291 35840 ft 460 kts 349°
2026-04-24 15:10 30.78633 31.21600 35853 ft 461 kts 349°
2026-04-24 15:10 30.85137 31.20870 35862 ft 463 kts 349°
2026-04-24 15:11 30.91330 31.20174 35865 ft 464 kts 349°
2026-04-24 15:11 30.97762 31.19451 35863 ft 466 kts 349°
2026-04-24 15:12 31.03183 31.18840 35864 ft 467 kts 349°
2026-04-24 15:12 31.12847 31.17750 35866 ft 469 kts 349°
2026-04-24 15:13 31.19329 31.17018 35872 ft 469 kts 349°
2026-04-24 15:13 31.25818 31.16284 35875 ft 469 kts 349°
2026-04-24 15:14 31.32319 31.15547 35880 ft 469 kts 349°
2026-04-24 15:14 31.38815 31.14811 35882 ft 469 kts 349°
2026-04-24 15:15 31.45322 31.14071 35882 ft 469 kts 349°
2026-04-24 15:15 31.51777 31.13337 35885 ft 468 kts 349°
2026-04-24 15:16 31.58261 31.12598 35885 ft 467 kts 349°
2026-04-24 15:16 31.64722 31.11861 35889 ft 466 kts 349°
2026-04-24 15:17 31.71197 31.11121 35895 ft 466 kts 349°
2026-04-24 15:17 31.77597 31.10388 35896 ft 465 kts 349°
2026-04-24 15:18 31.84042 31.09650 35901 ft 465 kts 349°
2026-04-24 15:18 31.90488 31.08910 35900 ft 465 kts 348°
2026-04-24 15:19 31.96881 31.08175 35901 ft 465 kts 348°
2026-04-24 15:19 32.02561 31.07521 35904 ft 466 kts 348°
2026-04-24 15:20 32.09014 31.06777 35907 ft 467 kts 348°
2026-04-24 15:20 32.15488 31.06030 35910 ft 468 kts 348°
2026-04-24 15:21 32.21981 31.05279 35911 ft 469 kts 348°
2026-04-24 15:21 32.28496 31.04525 35911 ft 471 kts 348°
2026-04-24 15:22 32.35019 31.03769 35911 ft 472 kts 348°
2026-04-24 15:23 32.44855 31.02628 35918 ft 474 kts 348°
2026-04-24 15:23 32.54760 31.01475 35920 ft 475 kts 348°
2026-04-24 15:25 32.70149 30.99680 35915 ft 475 kts 348°
2026-04-24 15:26 32.87671 30.97628 35923 ft 473 kts 348°
2026-04-24 15:27 33.07359 30.95312 35928 ft 471 kts 348°
2026-04-24 15:29 33.27151 30.94340 35941 ft 473 kts 353°
2026-04-24 15:31 33.49101 30.93542 35934 ft 473 kts 352°
2026-04-24 15:33 33.76569 30.92508 35934 ft 473 kts 353°
2026-04-24 15:34 33.91960 30.91927 35929 ft 473 kts 353°
2026-04-24 15:35 34.08402 30.91086 35931 ft 472 kts 352°
2026-04-24 15:36 34.15006 30.90713 35930 ft 472 kts 352°
2026-04-24 15:36 34.24905 30.90167 35931 ft 472 kts 352°
2026-04-24 15:37 34.31474 30.89829 35937 ft 472 kts 352°
2026-04-24 15:37 34.38038 30.89502 35929 ft 472 kts 352°
2026-04-24 15:38 34.44653 30.89169 35930 ft 472 kts 352°
2026-04-24 15:38 34.51217 30.88835 35934 ft 472 kts 352°
2026-04-24 15:39 34.57784 30.88500 35933 ft 472 kts 352°
2026-04-24 15:39 34.64347 30.88184 35937 ft 472 kts 352°
2026-04-24 15:40 34.70962 30.87975 35932 ft 473 kts 353°
2026-04-24 15:40 34.77545 30.87787 35931 ft 473 kts 352°
2026-04-24 15:41 34.84124 30.87585 35935 ft 473 kts 352°
2026-04-24 15:41 34.90702 30.87374 35935 ft 473 kts 352°
2026-04-24 15:42 34.97285 30.87161 35939 ft 473 kts 352°
2026-04-24 15:42 35.03883 30.86949 35940 ft 474 kts 352°
2026-04-24 15:43 35.10481 30.86736 35938 ft 474 kts 352°
2026-04-24 15:43 35.17102 30.86523 35936 ft 474 kts 352°
2026-04-24 15:44 35.23724 30.86302 35935 ft 474 kts 352°
2026-04-24 15:44 35.30326 30.86075 35940 ft 474 kts 352°
2026-04-24 15:45 35.36911 30.85849 35940 ft 474 kts 352°
2026-04-24 15:45 35.43423 30.85627 35940 ft 474 kts 352°
2026-04-24 15:46 35.50023 30.85401 35939 ft 474 kts 352°
2026-04-24 15:46 35.56610 30.85175 35938 ft 474 kts 352°
2026-04-24 15:47 35.63196 30.84939 35937 ft 473 kts 351°
2026-04-24 15:47 35.69772 30.84552 35939 ft 472 kts 350°
2026-04-24 15:48 35.76363 30.84115 35939 ft 472 kts 350°
2026-04-24 15:48 35.82921 30.83701 35940 ft 472 kts 350°
2026-04-24 15:49 35.89481 30.83299 35939 ft 472 kts 350°
2026-04-24 15:49 35.96037 30.82897 35937 ft 471 kts 350°
2026-04-24 15:50 36.02636 30.82491 35932 ft 471 kts 350°
2026-04-24 15:50 36.09196 30.82180 35933 ft 472 kts 352°
2026-04-24 15:51 36.15715 30.82005 35938 ft 472 kts 352°
2026-04-24 15:51 36.22273 30.81820 35932 ft 471 kts 352°
2026-04-24 15:52 36.28841 30.81612 35933 ft 471 kts 352°
2026-04-24 15:52 36.35396 30.81400 35936 ft 471 kts 352°
2026-04-24 15:53 36.41985 30.81188 35940 ft 471 kts 352°
2026-04-24 15:53 36.47466 30.80999 35934 ft 470 kts 352°
2026-04-24 15:54 36.53919 30.80766 35946 ft 470 kts 352°
2026-04-24 15:54 36.60454 30.80531 35946 ft 470 kts 352°
2026-04-24 15:55 36.67002 30.80298 35938 ft 470 kts 352°
2026-04-24 15:55 36.73550 30.80064 35939 ft 470 kts 352°
2026-04-24 15:56 36.80104 30.79830 35938 ft 470 kts 351°
2026-04-24 15:56 36.86664 30.79595 35945 ft 469 kts 351°
2026-04-24 15:57 36.93183 30.79456 35935 ft 473 kts 357°
2026-04-24 15:57 36.99790 30.80282 35944 ft 477 kts
2026-04-24 15:58 37.06366 30.81332 35944 ft 477 kts
2026-04-24 15:58 37.12994 30.82348 35950 ft 476 kts
2026-04-24 15:59 37.19576 30.83300 35967 ft 476 kts 360°
2026-04-24 15:59 37.26158 30.84233 35983 ft 476 kts 360°
2026-04-24 16:00 37.32777 30.85171 35976 ft 479 kts 360°
2026-04-24 16:00 37.39457 30.86126 35973 ft 477 kts 360°
2026-04-24 16:01 37.45986 30.87062 35972 ft 474 kts 360°
2026-04-24 16:01 37.52531 30.88000 35981 ft 471 kts 360°
2026-04-24 16:02 37.59063 30.88936 35983 ft 471 kts 359°
2026-04-24 16:02 37.65575 30.89872 35984 ft 470 kts 360°
2026-04-24 16:03 37.72047 30.90802 35972 ft 472 kts 360°
2026-04-24 16:03 37.78618 30.91751 35978 ft 473 kts 359°
2026-04-24 16:04 37.85125 30.92691 35984 ft 474 kts 359°
2026-04-24 16:04 37.91689 30.93642 35980 ft 476 kts 360°
2026-04-24 16:05 38.01591 30.95079 35967 ft 477 kts 360°
2026-04-24 16:06 38.11499 30.96523 35958 ft 477 kts 360°
2026-04-24 16:07 38.21392 30.97968 35952 ft 476 kts 360°
2026-04-24 16:07 38.31203 30.99405 35966 ft 473 kts 360°
2026-04-24 16:08 38.41001 31.00841 35947 ft 471 kts 360°
2026-04-24 16:09 38.47487 31.01270 35956 ft 457 kts 347°
2026-04-24 16:09 38.50593 31.00666 35968 ft 448 kts 339°
2026-04-24 16:09 38.53534 30.99502 35962 ft 437 kts 332°
2026-04-24 16:09 38.56336 30.98140 35982 ft 437 kts 332°
2026-04-24 16:11 38.70606 30.91143 35975 ft 441 kts 332°
2026-04-24 16:11 38.76363 30.88363 35974 ft 443 kts 332°
2026-04-24 16:12 38.85000 30.84192 35973 ft 445 kts 333°
2026-04-24 16:13 38.93728 30.79964 35969 ft 447 kts 333°
2026-04-24 16:14 39.05318 30.74332 35978 ft 446 kts 333°
2026-04-24 16:14 39.14023 30.70087 35983 ft 445 kts 334°
2026-04-24 16:15 39.22709 30.65841 35974 ft 444 kts 334°
2026-04-24 16:16 39.31335 30.61613 35979 ft 443 kts 334°
2026-04-24 16:17 39.45718 30.54537 35995 ft 440 kts 335°
2026-04-24 16:18 39.57135 30.48796 35989 ft 439 kts 332°
2026-04-24 16:19 39.65458 30.43920 35995 ft 440 kts 332°
2026-04-24 16:20 39.73834 30.38970 35993 ft 441 kts 332°
2026-04-24 16:20 39.82259 30.34035 36003 ft 443 kts 332°
2026-04-24 16:21 39.90700 30.29088 36001 ft 444 kts 332°
2026-04-24 16:22 39.96297 30.25799 35992 ft 444 kts 332°
2026-04-24 16:22 40.04735 30.20830 35993 ft 443 kts 332°
2026-04-24 16:23 40.10360 30.17510 35984 ft 442 kts 332°
2026-04-24 16:24 40.18768 30.12535 35988 ft 441 kts 332°
2026-04-24 16:24 40.24356 30.09221 36000 ft 440 kts 332°
2026-04-24 16:25 40.29904 30.05924 35993 ft 439 kts 332°
2026-04-24 16:25 40.35474 30.02610 35995 ft 438 kts 332°
2026-04-24 16:26 40.43798 29.97643 35989 ft 438 kts 333°
2026-04-24 16:27 40.51189 29.93223 35999 ft 437 kts 333°
2026-04-24 16:27 40.56741 29.89895 36002 ft 437 kts 333°
2026-04-24 16:28 40.62250 29.86587 35998 ft 438 kts 333°
2026-04-24 16:28 40.70580 29.81573 36004 ft 438 kts 333°
2026-04-24 16:29 40.76136 29.78222 35996 ft 439 kts 333°
2026-04-24 16:30 40.87226 29.71513 35994 ft 439 kts 334°
2026-04-24 16:30 40.92794 29.68136 36002 ft 440 kts 334°
2026-04-24 16:31 40.98363 29.64751 35999 ft 440 kts 334°
2026-04-24 16:31 41.03897 29.61381 35997 ft 440 kts 334°
2026-04-24 16:32 41.09462 29.57987 35993 ft 440 kts 334°
2026-04-24 16:32 41.15019 29.54590 35995 ft 439 kts 334°
2026-04-24 16:33 41.20601 29.51283 35986 ft 439 kts 340°
2026-04-24 16:33 41.26459 29.48997 35997 ft 439 kts 343°
2026-04-24 16:34 41.32343 29.46843 35995 ft 438 kts 343°
2026-04-24 16:34 41.38174 29.44672 35992 ft 437 kts 343°
2026-04-24 16:35 41.44033 29.42453 35991 ft 437 kts 343°
2026-04-24 16:35 41.49881 29.40224 35993 ft 437 kts 343°
2026-04-24 16:36 41.55726 29.37991 35989 ft 436 kts 343°
2026-04-24 16:36 41.61567 29.35756 35993 ft 436 kts 343°
2026-04-24 16:37 41.67404 29.33519 35988 ft 436 kts 343°
2026-04-24 16:37 41.73234 29.31281 35986 ft 436 kts 343°
2026-04-24 16:38 41.79024 29.29054 35981 ft 435 kts 344°
2026-04-24 16:38 41.84847 29.26809 35983 ft 435 kts 344°
2026-04-24 16:39 41.90669 29.24561 35978 ft 435 kts 344°
2026-04-24 16:39 41.96498 29.22306 35979 ft 435 kts 344°
2026-04-24 16:40 42.02273 29.20068 35978 ft 434 kts 344°
2026-04-24 16:40 42.08090 29.17809 35980 ft 434 kts 344°
2026-04-24 16:41 42.13899 29.15545 35978 ft 434 kts 342°
2026-04-24 16:41 42.19338 29.12073 35976 ft 434 kts 326°
2026-04-24 16:42 42.24132 29.07095 35970 ft 435 kts 323°
2026-04-24 16:42 42.28875 29.02019 35976 ft 435 kts 323°
2026-04-24 16:43 42.33603 28.96989 35969 ft 435 kts 323°
2026-04-24 16:43 42.38368 28.91947 35971 ft 435 kts 323°
2026-04-24 16:44 42.43143 28.86900 35967 ft 435 kts 323°
2026-04-24 16:44 42.47913 28.81850 35966 ft 435 kts 323°
2026-04-24 16:45 42.52690 28.76783 35966 ft 435 kts 323°
2026-04-24 16:45 42.57424 28.71750 35962 ft 435 kts 323°
2026-04-24 16:46 42.62190 28.66672 35962 ft 435 kts 323°
2026-04-24 16:46 42.66952 28.61589 35951 ft 435 kts 323°
2026-04-24 16:47 42.71707 28.56504 35963 ft 435 kts 323°
2026-04-24 16:47 42.76461 28.51408 35955 ft 435 kts 323°
2026-04-24 16:48 42.81209 28.46310 35957 ft 434 kts 323°
2026-04-24 16:48 42.85922 28.41239 35964 ft 434 kts 323°
2026-04-24 16:49 42.90654 28.36136 35947 ft 434 kts 323°
2026-04-24 16:49 42.95392 28.31018 35955 ft 433 kts 323°
2026-04-24 16:50 43.00122 28.25897 35958 ft 433 kts 323°
2026-04-24 16:50 43.00887 28.25067 35958 ft 433 kts 323°
2026-04-24 16:51 43.02474 28.23346 35955 ft 433 kts 323°
2026-04-24 16:51 43.06401 28.19084 35948 ft 433 kts 323°
2026-04-24 16:52 43.11116 28.13955 35936 ft 433 kts 323°
2026-04-24 16:52 43.15832 28.08816 35928 ft 433 kts 324°
2026-04-24 16:53 43.20543 28.03671 35920 ft 433 kts 324°
2026-04-24 16:53 43.25247 27.98522 35917 ft 433 kts 324°
2026-04-24 16:54 43.29935 27.93382 35919 ft 433 kts 324°
2026-04-24 16:54 43.34647 27.88205 35914 ft 433 kts 324°
2026-04-24 16:55 43.39351 27.83025 35915 ft 433 kts 324°
2026-04-24 16:55 43.44056 27.77834 35913 ft 433 kts 324°
2026-04-24 16:56 43.48756 27.72638 35918 ft 433 kts 324°
2026-04-24 16:56 43.53421 27.67470 35918 ft 433 kts 324°
2026-04-24 16:57 43.58116 27.62258 35910 ft 433 kts 324°
2026-04-24 16:57 43.62800 27.57048 35910 ft 432 kts 324°
2026-04-24 16:58 43.67477 27.51833 35912 ft 432 kts 324°
2026-04-24 16:58 43.72154 27.46609 35908 ft 432 kts 324°
2026-04-24 16:59 43.76821 27.41385 35908 ft 431 kts 324°
2026-04-24 17:00 43.83815 27.33536 35907 ft 431 kts 324°
2026-04-24 17:00 43.90765 27.25712 35916 ft 430 kts 324°
2026-04-24 17:01 43.97712 27.17867 35906 ft 428 kts 324°
2026-04-24 17:02 44.04633 27.10028 35906 ft 427 kts 324°
2026-04-24 17:02 44.09227 27.04810 35900 ft 426 kts 324°
2026-04-24 17:03 44.16093 26.96993 35894 ft 424 kts 324°
2026-04-24 17:04 44.20654 26.91787 35901 ft 423 kts 324°
2026-04-24 17:04 44.27447 26.84012 35901 ft 422 kts 324°
2026-04-24 17:05 44.31986 26.78804 35898 ft 422 kts 324°
2026-04-24 17:06 44.38780 26.70989 35895 ft 422 kts 324°
2026-04-24 17:06 44.45544 26.63183 35898 ft 421 kts 323°
2026-04-24 17:07 44.50021 26.58004 35902 ft 422 kts 323°
2026-04-24 17:08 44.59079 26.47491 35898 ft 422 kts 323°
2026-04-24 17:08 44.63599 26.42228 35899 ft 422 kts 323°
2026-04-24 17:09 44.72633 26.31679 35905 ft 422 kts 323°
2026-04-24 17:10 44.81644 26.21109 35905 ft 423 kts 323°
2026-04-24 17:12 44.98976 26.00657 35906 ft 424 kts 323°
2026-04-24 18:54 52.41570 16.83054 287 ft 0 kts 193°